DW2893 Weather Reports


Display with metric or nautical units.
time (UTC)temp
F
wind
direction
speed
MPH
gust
MPH
rain 1hr
in
rain 24hr
in
rain mn
in
humidity
%
barometer
mb
20260903051805 81 104 9.0 17.0 0.00 0.00 0.00 75 1011.7
20260903051305 81 122 8.0 14.0 0.00 0.00 0.00 74 1011.8
20260903045805 82 90 9.0 18.0 0.00 0.00 0.00 73 1011.8
20260903045306 82 112 9.0 18.0 0.00 0.00 0.00 72 1011.6
20260903042805 83 117 7.0 15.0 0.00 0.00 0.00 70 1011.7
20260903042306 83 93 8.0 14.0 0.00 0.00 0.00 70 1011.8
20260903041304 83 130 5.0 14.0 0.00 0.00 0.00 70 1011.9
20260903040805 84 110 7.0 13.0 0.00 0.00 0.00 68 1011.9
20260903035306 84 110 7.0 13.0 0.00 0.00 0.00 67 1011.9
20260903034805 84 114 8.0 16.0 0.00 0.00 0.00 67 1011.9
20260903033804 85 98 7.0 15.0 0.00 0.00 0.00 66 1011.9
20260903033305 85 99 9.0 14.0 0.00 0.00 0.00 65 1011.9
20260903032805 85 116 9.0 15.0 0.00 0.00 0.00 64 1011.7
20260903031805 85 115 9.0 20.0 0.00 0.00 0.00 63 1011.7
20260903031305 86 112 9.0 17.0 0.00 0.00 0.00 63 1011.7
20260903025805 87 139 9.0 17.0 0.00 0.00 0.00 62 1011.8
20260903024805 87 147 7.0 12.0 0.00 0.00 0.00 62 1011.5
20260903024305 87 127 6.0 15.0 0.00 0.00 0.00 61 1011.5
20260903022306 89 97 6.0 15.0 0.00 0.00 0.00 57 1011.2
20260903021805 90 102 9.0 18.0 0.00 0.00 0.00 56 1011.1
20260903021304 90 124 9.0 18.0 0.00 0.00 0.00 55 1011.1
20260903020805 90 102 10.0 20.0 0.00 0.00 0.00 54 1010.8
20260903020305 90 128 8.0 16.0 0.00 0.00 0.00 53 1010.7
20260903015804 91 107 9.0 18.0 0.00 0.00 0.00 53 1010.7
20260903013304 91 124 7.0 18.0 0.00 0.00 0.00 52 1010.3
20260903012805 91 99 9.0 14.0 0.00 0.00 0.00 52 1010.3
20260903012306 92 116 8.0 14.0 0.00 0.00 0.00 52 1010.3
20260903010804 92 121 8.0 14.0 0.00 0.00 0.00 51 1010.1
20260903005804 93 104 8.0 14.0 0.00 0.00 0.00 51 1010.1
20260903005306 93 118 5.0 12.0 0.00 0.00 0.00 51 1010.1
20260903004304 93 93 8.0 13.0 0.00 0.00 0.00 50 1010.0
20260903003304 94 134 7.0 12.0 0.00 0.00 0.00 50 1010.0
20260903000808 95 110 9.0 20.0 0.00 0.00 0.00 49 1009.9
20260903000310 95 77 10.0 18.0 0.00 0.00 0.00 48 1009.9
20260902235809 95 118 7.0 17.0 0.00 0.00 0.00 49 1009.9
20260902235308 95 74 6.0 13.0 0.00 0.00 0.00 49 1010.0
20260902234809 95 105 7.0 14.0 0.00 0.00 0.00 48 1009.6
20260902234308 96 102 8.0 20.0 0.00 0.00 0.00 47 1009.6
20260902232808 97 89 10.0 18.0 0.00 0.00 0.00 46 1009.7
20260902230809 98 100 6.0 13.0 0.00 0.00 0.00 42 1009.6
20260902222808 98 69 5.0 10.0 0.00 0.00 0.00 42 1009.8
20260902215308 98 58 6.0 12.0 0.00 0.00 0.00 41 1010.0
20260902213808 99 83 5.0 10.0 0.00 0.00 0.00 42 1010.2
20260902210808 98 94 5.0 12.0 0.00 0.00 0.00 43 1010.5
20260902210308 98 64 6.0 15.0 0.00 0.00 0.00 43 1010.5
20260902205808 98 49 3.0 10.0 0.00 0.00 0.00 43 1010.6
20260902203308 98 57 4.0 10.0 0.00 0.00 0.00 44 1010.9
20260902202808 98 98 3.0 8.0 0.00 0.00 0.00 44 1011.0
20260902201807 98 73 6.0 12.0 0.00 0.00 0.00 43 1011.2
20260902200807 98 44 4.0 12.0 0.00 0.00 0.00 44 1011.5
20260902200308 99 79 8.0 15.0 0.00 0.00 0.00 43 1011.5
20260902194808 97 145 6.0 12.0 0.00 0.00 0.00 45 1011.7
20260902194308 96 77 2.0 12.0 0.00 0.00 0.00 47 1011.7
20260902191308 97 93 2.0 6.0 0.00 0.00 0.00 48 1012.2
20260902184807 95 122 3.0 8.0 0.00 0.00 0.00 48 1012.8
20260902183807 95 85 5.0 12.0 0.00 0.00 0.00 50 1012.7
20260902174807 94 81 3.0 12.0 0.00 0.00 0.00 52 1013.9
20260902174307 94 55 4.0 12.0 0.00 0.00 0.00 52 1013.9
20260902171308 92 93 5.0 8.0 0.00 0.00 0.00 55 1014.5
20260902161807 91 67 3.0 8.0 0.00 0.00 0.00 59 1014.8
20260902160807 91 166 1.0 7.0 0.00 0.00 0.00 60 1014.9
20260902160307 90 121 3.0 7.0 0.00 0.00 0.00 61 1014.9
20260902155806 90 74 3.0 9.0 0.00 0.00 0.00 62 1014.9
20260902154807 90 166 5.0 10.0 0.00 0.00 0.00 62 1014.9
20260902154307 90 156 4.0 6.0 0.00 0.00 0.00 62 1014.9
20260902153306 89 149 1.0 7.0 0.00 0.00 0.00 64 1014.7
20260902152806 89 173 5.0 8.0 0.00 0.00 0.00 64 1014.7
20260902152308 88 152 3.0 7.0 0.00 0.00 0.00 65 1014.7
20260902144806 85 159 1.0 5.0 0.00 0.00 0.00 69 1014.6
20260902144307 84 170 2.0 6.0 0.00 0.00 0.00 71 1014.5
20260902143306 84 139 2.0 7.0 0.00 0.00 0.00 72 1014.5
20260902142306 83 137 2.0 7.0 0.00 0.00 0.00 73 1014.5
20260902141806 83 92 3.0 9.0 0.00 0.00 0.00 74 1014.5
20260902140307 82 111 5.0 7.0 0.00 0.00 0.00 74 1014.5
20260902135307 82 104 5.0 7.0 0.00 0.00 0.00 74 1014.4
20260902133306 81 147 3.0 8.0 0.00 0.00 0.00 75 1014.4
20260902132806 81 112 5.0 9.0 0.00 0.00 0.00 75 1014.4
20260902132307 81 120 4.0 8.0 0.00 0.00 0.00 75 1014.3
20260902131806 81 91 5.0 10.0 0.00 0.00 0.00 75 1014.3
20260902131306 80 123 3.0 7.0 0.00 0.00 0.00 76 1014.3
20260902130807 80 100 4.0 6.0 0.00 0.00 0.00 76 1014.2
20260902130306 80 95 3.0 8.0 0.00 0.00 0.00 77 1014.1
20260902125806 79 105 4.0 8.0 0.00 0.00 0.00 77 1014.1
20260902125306 79 103 3.0 7.0 0.00 0.00 0.00 77 1013.8
20260902124806 79 95 5.0 7.0 0.00 0.00 0.00 77 1013.8
20260902123806 79 109 4.0 8.0 0.00 0.00 0.00 78 1013.8
20260902115806 79 113 3.0 6.0 0.00 0.00 0.00 76 1013.8
20260902115308 79 114 3.0 6.0 0.00 0.00 0.00 76 1013.8
20260902114806 79 128 5.0 8.0 0.00 0.00 0.00 76 1013.8
20260902112806 79 150 2.0 3.0 0.00 0.00 0.00 76 1013.8
20260902110806 80 150 1.0 2.0 0.00 0.00 0.00 74 1013.9
20260902105806 80 150 1.0 3.0 0.00 0.00 0.00 73 1013.9
20260902105306 80 150 1.0 2.0 0.00 0.00 0.00 73 1013.8
20260902104806 80 150 1.0 3.0 0.00 0.00 0.00 73 1013.7
20260902104306 80 150 2.0 3.0 0.00 0.00 0.00 72 1013.8
20260902103806 80 150 2.0 3.0 0.00 0.00 0.00 72 1013.8
20260902103306 81 150 2.0 6.0 0.00 0.00 0.00 72 1013.7
20260902102806 81 146 2.0 5.0 0.00 0.00 0.00 71 1013.7
20260902102308 81 151 1.0 3.0 0.00 0.00 0.00 71 1013.7
20260902101806 81 150 1.0 3.0 0.00 0.00 0.00 71 1013.6
20260902101306 81 150 1.0 3.0 0.00 0.00 0.00 70 1013.6
20260902100305 81 151 2.0 3.0 0.00 0.00 0.00 70 1013.6
20260902095806 81 151 2.0 3.0 0.00 0.00 0.00 70 1013.6
20260902095307 82 151 2.0 5.0 0.00 0.00 0.00 70 1013.6
20260902093305 82 150 4.0 6.0 0.00 0.00 0.00 69 1013.5
20260902092806 82 157 2.0 5.0 0.00 0.00 0.00 69 1013.5
20260902091306 82 157 2.0 5.0 0.00 0.00 0.00 68 1013.6
20260902090806 83 155 3.0 6.0 0.00 0.00 0.00 68 1013.6
20260902090306 83 158 4.0 6.0 0.00 0.00 0.00 67 1013.6
20260902084806 83 153 4.0 7.0 0.00 0.00 0.00 67 1013.6
20260902083305 83 173 4.0 7.0 0.00 0.00 0.00 67 1013.6
20260902082805 83 139 5.0 8.0 0.00 0.00 0.00 67 1013.5
20260902082309 83 138 5.0 10.0 0.00 0.00 0.00 67 1013.6
20260902081306 83 141 6.0 12.0 0.00 0.00 0.00 66 1013.6
20260902080306 83 89 5.0 10.0 0.00 0.00 0.00 66 1013.6
20260902075805 84 111 5.0 8.0 0.00 0.00 0.00 66 1013.6
20260902074805 84 140 6.0 8.0 0.00 0.00 0.00 66 1013.7
20260902074305 84 147 6.0 9.0 0.00 0.00 0.00 66 1013.6
20260902073805 84 71 5.0 10.0 0.00 0.00 0.00 66 1013.7
20260902071806 84 119 5.0 10.0 0.00 0.00 0.00 66 1013.7
20260902071305 85 153 5.0 9.0 0.00 0.00 0.00 66 1013.7
20260902070805 85 33 6.0 12.0 0.00 0.00 0.00 66 1013.7
20260902065307 85 10 8.0 17.0 0.00 0.00 0.00 65 1013.5
20260902064806 85 17 9.0 15.0 0.00 0.00 0.00 65 1013.5
20260902064306 85 80 9.0 16.0 0.00 0.00 0.00 65 1013.5
20260902063805 85 148 7.0 14.0 0.00 0.00 0.00 65 1013.5
20260902062805 85 41 6.0 17.0 0.00 0.00 0.00 64 1013.5
20260902062306 85 17 7.0 13.0 0.00 0.00 0.00 64 1013.5
20260902055307 86 32 7.0 15.0 0.00 0.00 0.00 63 1013.5